This demonstration page uses our WeatherBlox Daily Observations layout. Learn more.

41.55636, -103.73856

Hourly Observations for June 11, 2020

Temp ( °F °C ) Dew Point ( °F °C ) Humidity (%) Winds ( mph kmh ) Pressure ( in mb ) Visibility ( mi km ) Precip ( " mm )
12:58 am 00:58 Partly Cloudy 71 21.6 38 3.2 30 30 NW 6 9 30.08 1019 10 16.0934 0 0
1:58 am 01:58 Mostly Cloudy 67 19.2 37 2.5 33 33 NNW 8 13 30.08 1019 10 16.0934 0 0
2:58 am 02:58 Mostly Cloudy 65 18.6 37 2.8 35 35 Calm 30.08 1019 10 16.0934 0 0
3:58 am 03:58 Mostly Cloudy with Light Showers 60 15.4 42 5.5 52 52 S 6 9 30.12 1020 10 16.0934 0 0
4:58 am 04:58 Partly Cloudy 58 14.6 43 6 57 57 S 3 6 30.13 1020 10 16.0934 0 0
5:58 am 05:58 Clear 53 11.8 43 6.2 69 69 SW 6 9 30.14 1021 10 16.0934 0 0
6:58 am 06:58 Clear 55 12.7 41 5 60 60 ESE 6 9 30.15 1021 10 16.0934 0 0
7:58 am 07:58 Clear 49 9.7 42 5.4 75 75 SW 6 9 30.14 1021 10 16.0934 0 0
8:58 am 08:58 Clear 49 9.3 41 5.1 75 75 SSW 8 13 30.15 1021 10 16.0934 0 0
9:58 am 09:58 Clear 46 7.5 40 4.7 83 83 SW 6 9 30.17 1022 10 16.0934 0 0
10:58 am 10:58 Clear 46 7.6 40 4.2 79 79 W 7 11 30.19 1022 10 16.0934 0 0
11:58 am 11:58 Sunny 45 7.4 39 4.1 80 80 WSW 8 13 30.21 1023 10 16.0934 0 0
12:58 pm 12:58 Sunny 50 10 43 6.1 77 77 Calm 30.22 1024 10 16.0934 0 0
1:58 pm 13:58 Sunny 58 14.5 42 5.4 55 55 WNW 8 13 30.22 1024 10 16.0934 0 0
2:58 pm 14:58 Sunny 63 17.2 42 5.4 46 46 WNW 7 11 30.22 1024 10 16.0934 0 0
3:58 pm 15:58 Sunny 68 19.8 44 6.5 42 42 Calm 30.22 1024 10 16.0934 0 0
4:58 pm 16:58 Sunny 73 22.6 40 4.3 30 30 N 5 7 30.23 1024 10 16.0934 0 0
5:58 pm 17:58 Sunny 76 24.2 38 3.3 26 26 ENE 7 11 30.24 1024 10 16.0934 0 0
6:58 pm 18:58 Sunny 76 24.6 33 0.3 20 20 E 3 6 30.23 1024 10 16.0934 0 0
7:58 pm 19:58 Sunny 77 25.2 34 1.2 21 21 N 7 11 30.23 1024 10 16.0934 0 0
8:58 pm 20:58 Sunny 78 25.6 32 -0.1 18 18 Calm 30.22 1024 10 16.0934 0 0
9:58 pm 21:58 Sunny 79 26.1 35 1.6 20 20 Calm 30.22 1024 10 16.0934 0 0
10:58 pm 22:58 Sunny 79 26.2 33 0.4 18 18 Calm 30.22 1023 10 16.0934 0 0
11:58 pm 23:58 Sunny 80 26.4 34 1.2 19 19 ENE 5 7 30.2 1023 10 16.0934 0 0

Powered by AerisWeather